Regional Weather Roundup
Issued by NWS

Home | Current Version | Previous Version | Graphics & Text | Print | Product List | Glossary On
Versions: 1 2 3 4 5 6 7 8 9 10 11 12 13 14 15 16 17 18 19 20 21 22 23 24 25 26 27 28 29 30 31 32 33 34 35 36 37 38 39 40 41 42 43 44 45 46 47 48 49 50
000
ASUS43 KIND 090409
RWRIN

WEATHER ROUNDUP FOR INDIANA
NATIONAL WEATHER SERVICE INDIANAPOLIS IN
1100 PM EST MON FEB 08 2016

NOTE: "FAIR" INDICATES FEW OR NO CLOUDS BELOW 12,000 FEET WITH NO
SIGNIFICANT WEATHER AND/OR OBSTRUCTIONS TO VISIBILITY.

* - STATION DOES NOT REPORT WEATHER SUCH AS PRECIPITATION OR FOG.

+ - STATION NOT QUALITY CONTROLLED BY THE NATIONAL WEATHER SERVICE.
    USE DATA WITH CAUTION...ESPECIALLY DEWPOINT AND RELATIVE
    HUMIDITY OBSERVATIONS.

INZ001>003-010>013-019-020-090500-
NORTHWEST INDIANA

CITY           SKY/WX    TMP DP  RH WIND       PRES   REMARKS
GARY /AIRPORT/ CLOUDY    28  20  71 W10G16    29.74S WCI  19
KNOX *+        CLOUDY    27  23  86 W9        29.71F WCI  17
LA PORTE +     LGT SNOW  28  27  94 W7        29.71S WCI  21
MICHIGAN CITY+ FLURRIES  28  25  86 NW9       29.72S WCI  20
MONTICELLO +   CLOUDY    25  18  74 W10G16    29.74S WCI  15
RENSSELAER +   CLOUDY    27  19  74 W13       29.74F WCI  16
VALPARAISO     CLOUDY    27  21  78 W8        29.72S WCI  19

$$

LMZ046-743>745-090500-
SOUTHERN LAKE MICHIGAN

STATION/POSITION TIME  TEMP    WIND        PRES    WAVE
                       AIR SEA DIR/SP/G            HT
                 (UTC) (F)     (DEG/KT/KT) (MB)    (FT)
BURNS HARBOR     0300   28     280/ 14/ 17 1007.1
MICHIGAN CITY    0300   26     270/ 17/ 20   N/A

$$

INZ004-005-014>016-021>024-090500-
NORTH CENTRAL INDIANA

CITY           SKY/WX    TMP DP  RH WIND       PRES   REMARKS
GOSHEN         LGT SNOW  27  24  89 W10       29.66F FOG     WCI  17
LOGANSPORT +   CLOUDY    25  19  80 W12       29.73F WCI  14
PERU/GRISSOM   LGT SNOW  25  21  86 W14       29.69F FOG     WCI  13
ROCHESTER +    PTCLDY    28  21  74 W9G16     29.70F WCI  20
SOUTH BEND     CLOUDY    26  24  92 W10       29.69S WCI  16
WARSAW +       LGT SNOW  27  25  93 W10       29.68F WCI  17

$$

INZ006>009-017-018-025>027-090500-
NORTHEAST INDIANA

CITY           SKY/WX    TMP DP  RH WIND       PRES   REMARKS
ANGOLA *+      CLOUDY    28  27  93 W7        29.63F WCI  21
AUBURN +       CLOUDY    30  27  86 W10       29.65F WCI  21
FORT WAYNE     CLOUDY    28  23  81 W17       29.68F WCI  16
HUNTINGTON +   LGT SNOW  25  20  83 W12G17    29.69S WCI  14

$$

INZ028-029-035-036-043>045-051>053-090500-
WEST CENTRAL INDIANA

CITY           SKY/WX    TMP DP  RH WIND       PRES   REMARKS
GREENCASTLE +  FLURRIES  21  12  68 W7        29.79S WCI  13
LAFAYETTE      CLOUDY    22  18  85 W16       29.76F WCI   8
TERRE HAUTE    FLURRIES  21  15  78 W9        29.83S WCI  11

$$

INZ030>032-037>040-046>048-054>057-064-065-090500-
CENTRAL INDIANA

CITY           SKY/WX    TMP DP  RH WIND       PRES   REMARKS
FISHERS *+     CLOUDY    21  19  93 W10       29.75F WCI  10
FRANKFORT +    CLOUDY    24  15  71 W15G21    29.76S WCI  11
GREENWOOD *+   CLOUDY    23  19  86 W10       29.77F WCI  12
INDIANAPOLIS   FLURRIES  22  16  78 W12       29.75F WCI  10
-EAGLE CREEK   CLOUDY    22  17  81 W14       29.75F WCI   9
KOKOMO *+      CLOUDY    25  19  80 W18       29.71F WCI  11
MARION +       LGT SNOW  25  16  70 W17       29.71F WCI  11
MT COMFORT *+  CLOUDY    23  18  80 W12       29.75F WCI  12
SHELBYVILLE    FLURRIES  23  16  74 W15       29.75F WCI  10
ZIONSVILLE +   CLOUDY    22  18  84 W12G18    29.74F WCI  10

$$

INZ033-034-041-042-049-050-058-059-090500-
EAST CENTRAL INDIANA

CITY           SKY/WX    TMP DP  RH WIND       PRES   REMARKS
MUNCIE         FLURRIES  25  19  78 W15       29.71S WCI  13

$$

INZ060-061-067>069-081>083-085>088-090500-
SOUTHWEST INDIANA

CITY           SKY/WX    TMP DP  RH WIND       PRES   REMARKS
EVANSVILLE     LGT SNOW  24  17  74 NW8       29.90F WCI  15
HUNTINGBURG *+ CLOUDY    21  16  79 NW14      29.87S WCI   8
WASHINGTON +   FLURRIES  21  17  82 W10       29.86S WCI  10

$$

INZ062-063-066-070>080-084-089>092-090500-
SOUTH CENTRAL AND SOUTHEAST INDIANA

CITY           SKY/WX    TMP DP  RH WIND       PRES   REMARKS
BEDFORD +      MOCLDY    21  16  79 W8        29.82S WCI  12
BLOOMINGTON    CLOUDY    21  16  81 W7        29.80S WCI  12
MADISON *+     CLOUDY    23  19  86 W8        29.80S WCI  14
NORTH VERNON + CLOUDY    23  18  80 CALM      29.79S
SEYMOUR +      FLURRIES  25  18  74 W10G16    29.81S WCI  15

$$




USA.gov is the U.S. government's official web portal to all federal, state and local government web resources and services.